TimeCST,TemperatureF,Dew PointF,Humidity,Sea Level PressureIn,VisibilityMPH,Wind Direction,Wind SpeedMPH,Gust SpeedMPH,PrecipitationIn,Events,Conditions,WindDirDegrees,DateUTC
12:15 AM,24.8,19.0,79,29.94,10.0,West,10.4,-,N/A,,Overcast,280,2012-12-07 06:15:00
12:35 AM,24.8,19.0,79,29.93,10.0,West,11.5,-,N/A,,Overcast,270,2012-12-07 06:35:00
12:55 AM,24.8,18.9,78,29.93,10.0,West,11.5,-,N/A,,Overcast,270,2012-12-07 06:55:00
1:15 AM,24.4,18.5,78,29.94,10.0,West,12.7,-,N/A,,Overcast,270,2012-12-07 07:15:00
1:35 AM,23.5,17.4,77,29.94,10.0,WNW,11.5,-,N/A,,Overcast,290,2012-12-07 07:35:00
1:55 AM,22.5,17.1,80,29.94,10.0,West,5.8,-,N/A,,Overcast,280,2012-12-07 07:55:00
2:15 AM,21.7,16.7,81,29.94,10.0,West,9.2,-,N/A,,Overcast,270,2012-12-07 08:15:00
2:35 AM,21.2,16.7,83,29.96,10.0,West,9.2,-,N/A,,Overcast,260,2012-12-07 08:35:00
2:55 AM,20.5,16.3,84,29.96,10.0,West,6.9,-,N/A,,Overcast,260,2012-12-07 08:55:00
3:15 AM,19.6,15.4,84,29.96,10.0,West,9.2,-,N/A,,Overcast,260,2012-12-07 09:15:00
3:35 AM,18.1,14.7,86,29.96,10.0,West,8.1,-,N/A,,Mostly Cloudy,260,2012-12-07 09:35:00
3:55 AM,16.9,14.0,88,29.96,10.0,West,8.1,-,N/A,,Scattered Clouds,260,2012-12-07 09:55:00
4:15 AM,16.0,13.3,89,29.96,10.0,West,8.1,-,N/A,,Clear,280,2012-12-07 10:15:00
4:35 AM,15.6,12.7,88,29.96,10.0,West,8.1,-,N/A,,Clear,280,2012-12-07 10:35:00
5:15 AM,11.5,8.4,87,29.96,10.0,NW,5.8,-,N/A,,Clear,310,2012-12-07 11:15:00
5:35 AM,11.3,8.6,89,29.97,10.0,WNW,6.9,-,N/A,,Clear,290,2012-12-07 11:35:00
5:55 AM,11.3,8.6,89,29.97,7.0,West,4.6,-,N/A,,Clear,280,2012-12-07 11:55:00
6:15 AM,11.3,8.4,88,29.98,10.0,WNW,5.8,-,N/A,,Clear,290,2012-12-07 12:15:00
6:35 AM,9.9,7.2,89,29.97,10.0,NW,5.8,-,N/A,,Clear,320,2012-12-07 12:35:00
6:55 AM,9.0,6.3,89,29.98,10.0,WNW,4.6,-,N/A,,Clear,300,2012-12-07 12:55:00
7:15 AM,8.8,5.9,88,29.98,10.0,WNW,3.5,-,N/A,,Clear,300,2012-12-07 13:15:00
7:35 AM,8.4,5.5,88,29.99,7.0,West,3.5,-,N/A,,Clear,280,2012-12-07 13:35:00
7:55 AM,8.2,5.2,87,29.99,7.0,WNW,3.5,-,N/A,,Clear,300,2012-12-07 13:55:00
8:15 AM,8.6,5.9,89,30.00,7.0,West,5.8,-,N/A,,Clear,280,2012-12-07 14:15:00
8:35 AM,10.0,7.3,89,30.01,7.0,WNW,3.5,-,N/A,,Clear,290,2012-12-07 14:35:00
8:55 AM,9.7,7.0,89,30.02,7.0,WNW,4.6,-,N/A,,Clear,300,2012-12-07 14:55:00
9:15 AM,10.8,8.1,89,30.02,10.0,WNW,4.6,-,N/A,,Clear,300,2012-12-07 15:15:00
9:35 AM,11.8,9.0,88,30.03,10.0,West,3.5,-,N/A,,Clear,270,2012-12-07 15:35:00
9:55 AM,12.6,9.3,87,30.04,10.0,WNW,3.5,-,N/A,,Clear,290,2012-12-07 15:55:00
10:15 AM,13.1,9.7,86,30.05,10.0,WNW,3.5,-,N/A,,Clear,300,2012-12-07 16:15:00
10:35 AM,13.6,10.2,86,30.05,10.0,NW,5.8,-,N/A,,Clear,320,2012-12-07 16:35:00
10:55 AM,14.2,10.4,85,30.04,7.0,NNW,4.6,-,N/A,,Clear,340,2012-12-07 16:55:00
11:15 AM,14.9,10.4,82,30.04,7.0,NNW,3.5,-,N/A,,Scattered Clouds,340,2012-12-07 17:15:00
11:35 AM,15.1,10.2,81,30.03,10.0,NNW,6.9,-,N/A,,Scattered Clouds,330,2012-12-07 17:35:00
11:55 AM,15.6,10.4,80,30.02,7.0,NW,5.8,-,N/A,,Mostly Cloudy,320,2012-12-07 17:55:00
12:15 PM,15.6,10.0,79,30.04,7.0,NW,5.8,-,N/A,Snow,Light Snow,320,2012-12-07 18:15:00
12:35 PM,15.8,10.0,78,30.03,3.0,NNW,4.6,-,N/A,Snow,Light Snow,330,2012-12-07 18:35:00
12:55 PM,16.2,10.2,77,30.03,5.0,NW,3.5,-,N/A,Snow,Light Snow,320,2012-12-07 18:55:00
1:15 PM,16.5,9.9,75,30.02,7.0,NW,5.8,-,N/A,Snow,Light Snow,310,2012-12-07 19:15:00
1:35 PM,16.9,10.0,75,30.02,10.0,NW,3.5,-,N/A,,Mostly Cloudy,310,2012-12-07 19:35:00
1:55 PM,16.7,9.5,73,30.02,10.0,NNE,3.5,-,N/A,,Mostly Cloudy,20,2012-12-07 19:55:00
2:15 PM,16.7,9.3,73,30.03,10.0,NNW,4.6,-,N/A,,Mostly Cloudy,340,2012-12-07 20:15:00
2:35 PM,16.7,9.5,73,30.03,10.0,Calm,Calm,-,N/A,,Overcast,0,2012-12-07 20:35:00
2:55 PM,16.9,9.3,72,30.03,10.0,Calm,Calm,-,N/A,,Overcast,0,2012-12-07 20:55:00
3:15 PM,16.9,9.1,72,30.03,10.0,Calm,Calm,-,N/A,,Mostly Cloudy,0,2012-12-07 21:15:00
3:35 PM,16.7,9.0,72,30.03,10.0,NNE,4.6,-,N/A,,Scattered Clouds,20,2012-12-07 21:35:00
3:55 PM,16.3,9.1,73,30.03,10.0,Calm,Calm,-,N/A,,Clear,0,2012-12-07 21:55:00
4:15 PM,15.4,8.6,74,30.03,10.0,North,3.5,-,N/A,,Clear,350,2012-12-07 22:15:00
4:35 PM,14.9,8.4,76,30.04,10.0,North,3.5,-,N/A,,Clear,350,2012-12-07 22:35:00
4:55 PM,14.0,7.9,77,30.04,10.0,North,3.5,-,N/A,,Clear,360,2012-12-07 22:55:00
5:15 PM,13.6,7.7,77,30.04,10.0,North,3.5,-,N/A,,Scattered Clouds,360,2012-12-07 23:15:00
5:35 PM,12.9,7.3,78,30.04,10.0,North,4.6,-,N/A,,Mostly Cloudy,360,2012-12-07 23:35:00
5:55 PM,12.4,7.0,79,30.04,10.0,North,4.6,-,N/A,,Mostly Cloudy,360,2012-12-07 23:55:00
6:15 PM,12.2,6.8,79,30.04,10.0,NNE,4.6,-,N/A,,Overcast,20,2012-12-08 00:15:00
6:35 PM,12.2,7.0,80,30.05,10.0,Calm,Calm,-,N/A,,Overcast,0,2012-12-08 00:35:00
6:55 PM,11.7,6.8,81,30.05,10.0,Calm,Calm,-,N/A,,Overcast,0,2012-12-08 00:55:00
7:15 PM,11.3,6.4,81,30.05,10.0,Calm,Calm,-,N/A,,Scattered Clouds,0,2012-12-08 01:15:00
7:35 PM,9.9,5.5,83,30.04,10.0,North,3.5,-,N/A,,Clear,350,2012-12-08 01:35:00
7:55 PM,8.6,5.2,86,30.04,10.0,Calm,Calm,-,N/A,,Clear,0,2012-12-08 01:55:00
8:15 PM,8.1,4.8,87,30.04,10.0,Calm,Calm,-,N/A,,Scattered Clouds,0,2012-12-08 02:15:00
8:55 PM,8.1,4.6,86,30.04,10.0,Calm,Calm,-,N/A,,Overcast,0,2012-12-08 02:55:00
9:15 PM,9.1,5.9,87,30.04,10.0,Calm,Calm,-,N/A,,Overcast,0,2012-12-08 03:15:00
9:35 PM,10.4,7.2,87,30.04,10.0,Calm,Calm,-,N/A,,Overcast,0,2012-12-08 03:35:00
9:55 PM,11.5,7.7,85,30.04,10.0,Calm,Calm,-,N/A,,Overcast,0,2012-12-08 03:55:00
10:35 PM,12.6,8.2,83,30.04,10.0,Calm,Calm,-,N/A,,Overcast,0,2012-12-08 04:35:00
10:55 PM,12.9,9.1,85,30.04,10.0,NE,3.5,-,N/A,,Overcast,50,2012-12-08 04:55:00
11:15 PM,13.1,9.3,85,30.04,10.0,ENE,4.6,-,N/A,,Overcast,60,2012-12-08 05:15:00
11:35 PM,13.1,9.0,84,30.04,10.0,East,5.8,-,N/A,,Overcast,80,2012-12-08 05:35:00
11:55 PM,13.1,8.2,81,30.04,10.0,ENE,5.8,-,N/A,,Overcast,70,2012-12-08 05:55:00